Key West, FL

12:16 PM EDT on September 28, 2016 (GMT -0400)
Key West International

Weather History for KEYW - April, 2014

Change the Weather History Date:

Monday, April 14, 2014

  Actual Average Record
Temperature  
Mean Temperature 80 °F 76 °F  
Max Temperature 84 °F 81 °F 87 °F (1949)
Min Temperature 75 °F 71 °F 58 °F (1940)
Degree Days  
Heating Degree Days 0 0  
Month to date heating degree days 0 0  
Since 1 July heating degree days 22 73  
Cooling Degree Days 15 11  
Month to date cooling degree days 165 147  
Year to date cooling degree days 868 757  
Growing Degree Days 30 (Base 50)    
Moisture  
Dew Point 72 °F    
Average Humidity 81    
Maximum Humidity 87    
Minimum Humidity 74    
Precipitation  
Precipitation 0.00 in 0.07 in 2.06 in (1977)
Month to date precipitation 0.47 0.94  
Year to date precipitation 11.85 6.52  
Snow  
Snow 0.00 in - - ()
Month to date snowfall 0.0  
Since 1 July snowfall 0.0  
Snow Depth 0.00 in    
Sea Level Pressure  
Sea Level Pressure 29.95 in    
Wind  
Wind Speed 9 mph (ESE)    
Max Wind Speed 14 mph    
Max Gust Speed 19 mph    
Visibility 10 miles    
Events      
T = Trace of Precipitation, MM = Missing Value Source: NWS Daily Summary

Daily Weather History Graph

Daily Weather History Graph

Search for Another Location

Airport or City:

Trip Planner

Search our weather history database for the weather conditions in past years. The results will help you decide how hot, cold, wet, or windy it might be!

Date:

Astronomy

Apr. 14, 2014 Rise Set
Actual Time 7:06 AM EDT 7:48 PM EDT
Civil Twilight 6:42 AM EDT 8:12 PM EDT
Nautical Twilight 6:15 AM EDT 8:39 PM EDT
Astronomical Twilight 5:47 AM EDT 9:07 PM EDT
Moon 7:27 PM EDT (4/14) 6:32 AM EDT (4/14)
Length of Visible Light 13h 29m
Length of Day
12h 42m
Full, 100% of the Moon is Illuminated
Apr 14
Full
Apr 15
Full
Apr 22
Last Quarter
Apr 29
New
May 6
First Quarter

Hourly Weather History & Observations

Time (EDT) Temp. Heat Index Dew Point Humidity Pressure Visibility Wind Dir Wind Speed Gust Speed Precip Events Conditions
12:53 AM 75.9 °F - 70.0 °F 82% 29.99 in 10.0 mi Variable 6.9 mph - N/A   Clear
1:53 AM 75.9 °F - 70.0 °F 82% 29.98 in 10.0 mi East 6.9 mph - N/A   Partly Cloudy
2:53 AM 75.0 °F - 70.0 °F 84% 29.96 in 10.0 mi East 3.5 mph - N/A   Scattered Clouds
3:53 AM 75.9 °F - 70.0 °F 82% 29.95 in 10.0 mi ESE 6.9 mph - N/A   Clear
4:53 AM 75.2 °F - 69.8 °F 83% 29.94 in 10.0 mi SE 6.9 mph - N/A   Partly Cloudy
5:53 AM 75.9 °F - 70.0 °F 82% 29.94 in 10.0 mi ESE 6.9 mph - N/A   Clear
6:53 AM 75.9 °F - 71.1 °F 85% 29.95 in 10.0 mi SE 6.9 mph - N/A   Partly Cloudy
7:53 AM 77.0 °F - 71.6 °F 83% 29.96 in 10.0 mi ESE 5.8 mph - N/A   Clear
8:53 AM 79.0 °F - 73.0 °F 82% 29.97 in 10.0 mi ESE 8.1 mph - N/A   Clear
9:53 AM 80.1 °F 84.2 °F 73.0 °F 79% 29.98 in 10.0 mi SE 9.2 mph - N/A   Clear
10:53 AM 82.0 °F 87.9 °F 73.9 °F 76% 29.99 in 10.0 mi SE 9.2 mph - N/A   Partly Cloudy
11:53 AM 82.0 °F 87.4 °F 73.0 °F 74% 29.99 in 10.0 mi SE 9.2 mph - N/A   Clear
12:53 PM 82.9 °F 89.4 °F 73.9 °F 74% 29.98 in 10.0 mi SE 9.2 mph - N/A   Clear
1:53 PM 82.4 °F 88.2 °F 73.4 °F 74% 29.97 in 10.0 mi ESE 11.5 mph - N/A   Clear
2:53 PM 82.9 °F 89.4 °F 73.9 °F 74% 29.96 in 10.0 mi ESE 8.1 mph - N/A   Clear
3:53 PM 82.9 °F 88.8 °F 73.0 °F 72% 29.93 in 10.0 mi ESE 11.5 mph - N/A   Clear
4:53 PM 82.0 °F 87.4 °F 73.0 °F 74% 29.92 in 10.0 mi ESE 11.5 mph - N/A   Clear
5:53 PM 82.0 °F 87.4 °F 73.0 °F 74% 29.91 in 10.0 mi ESE 11.5 mph - N/A   Clear
6:53 PM 81.0 °F 85.8 °F 73.0 °F 77% 29.91 in 10.0 mi East 10.4 mph - N/A   Clear
7:53 PM 79.0 °F - 73.0 °F 82% 29.90 in 10.0 mi East 11.5 mph - N/A   Clear
8:53 PM 78.1 °F - 73.0 °F 84% 29.91 in 10.0 mi East 12.7 mph - N/A   Clear
9:53 PM 78.1 °F - 73.0 °F 84% 29.92 in 10.0 mi ESE 10.4 mph - N/A   Clear
10:53 PM 78.1 °F - 73.0 °F 84% 29.92 in 10.0 mi ESE 10.4 mph - N/A   Clear
11:53 PM 78.1 °F - 73.9 °F 87% 29.92 in 10.0 mi SE 10.4 mph - N/A   Clear